• Processing (Info)

  • MPEC 2014-Q115: 2014 QY363

    The following Minor Planet Electronic Circular may be linked-to from your own Web pages, but must not otherwise be redistributed electronically.

    A form allowing access to any MPEC is at the bottom of this page.


    Read MPEC 2014-Q114 Read MPEC 2014-R01


    M.P.E.C. 2014-Q115                               Issued 2014 Aug. 31, 15:53 UT
    
         The Minor Planet Electronic Circulars contain information on unusual
             minor planets and routine data on comets.  They are published
       on behalf of Commission 20 of the International Astronomical Union by the
              Minor Planet Center, Smithsonian Astrophysical Observatory,
                              Cambridge, MA 02138, U.S.A.
    
                 Prepared using the Tamkin Foundation Computer Network
    
                                  MPC@CFA.HARVARD.EDU
                URL https://www.minorplanetcenter.net/    ISSN 1523-6714
    
                                      2014 QY363
    
    Observations:
         K14Qa3Y* C2014 08 27.45254 22 56 32.335-36 01 46.39         20.1 wLEQ115F51
         K14Qa3Y  C2014 08 27.46175 22 56 31.764-36 01 02.59         20.1 wLEQ115F51
         K14Qa3Y  C2014 08 27.47100 22 56 31.177-36 00 18.41         20.3 wLEQ115F51
         K14Qa3Y _C2014 08 28.39062622 55 52.454-34 45 40.85         19.2 RtEQ115568
         K14Qa3Y _C2014 08 28.39188022 55 52.372-34 45 34.64         19.0 RtEQ115568
         K14Qa3Y _C2014 08 28.39313222 55 52.291-34 45 28.52         19.1 RtEQ115568
         K14Qa3Y KC2014 08 31.32445 22 53 35.70 -30 23 57.6          18.6 RoEQ115291
         K14Qa3Y KC2014 08 31.32483 22 53 35.69 -30 23 55.5          19.2 RoEQ115291
         K14Qa3Y KC2014 08 31.32521 22 53 35.65 -30 23 53.6          18.8 RoEQ115291
         K14Qa3Y KC2014 08 31.59436 22 53 22.92 -29 57 21.1          19.4 VqEQ115E23
         K14Qa3Y KC2014 08 31.62040 22 53 21.28 -29 54 51.2          19.0 VqEQ115E23
    
    Observer details:
    291 LPL/Spacewatch II.  Observer T. H. Bressi.  1.8-m f/2.7 reflector + CCD.
    568 Mauna Kea.  Observers R. J. Wainscoat, L. Wells.  Measurers M. Micheli,
        R. J. Wainscoat.  3.6-m Canada-France-Hawaii Telescope + CCD.
    E23 Arcadia.  Observer A. Hidas.  0.35-m Schmidt-Cassegrain + CCD.
    F51 Pan-STARRS 1, Haleakala.  Observers N. Primak, A. Schultz, T. Goggia,
        M. Willman.  Measurers B. Bolin, K. Chambers, S. Chastel, L. Denneau,
        H. Flewelling, M. Huber, E. Magnier, E. Schunova, R. Wainscoat, C. Waters.
        1.8-m Ritchey-Chretien + CCD.
    
    Orbital elements:
    2014 QY363                                               Earth MOID = 0.1787 AU
    Epoch 2014 Dec. 9.0 TT = JDT 2457000.5                  MPC
    M  13.58699              (2000.0)            P               Q
    n   0.16410171     Peri.    5.20967     +0.99075400     +0.11620788
    a   3.3041568      Node   347.45073     -0.13318490     +0.73474049
    e   0.6419219      Incl.   18.79845     -0.02585150     +0.66832039
    P   6.01           H   21.6           G   0.15           U   8
    Residuals in seconds of arc
    140827 F51  0.0   0.1-    140828 568  0.4+  0.0     140831 291  0.5-  0.1-
    140827 F51  0.0   0.0     140828 568  0.3+  0.1-    140831 E23  0.7+  0.6+
    140827 F51  0.1-  0.1+    140831 291  0.5-  0.2+    140831 E23  1.4+  0.9-
    140828 568  0.4+  0.1-    140831 291  0.3-  0.1+
    
    Ephemeris:
    2014 QY363               a,e,i = 3.30, 0.64, 19                  q = 1.1831
    Date    TT    R. A. (2000) Decl.     Delta      r     Elong.  Phase     V
    2014 08 01    22 58 01.3 -53 27 28   0.3869  1.3216   136.2    32.1    21.5
    ...
    2014 08 16    23 02 04.9 -47 08 25   0.2841  1.2505   142.7    29.4    20.6
    ...
    2014 08 24    22 58 49.2 -40 10 40   0.2383  1.2219   149.2    25.1    20.1
    ...
    2014 08 30    22 54 38.1 -32 26 08   0.2104  1.2053   156.2    19.8    19.6
    2014 08 31    22 53 51.2 -30 54 10   0.2065  1.2029   157.5    18.7    19.5
    2014 09 01    22 53 03.5 -29 17 56   0.2028  1.2007   158.9    17.6    19.5
    ...
    2014 09 07    22 48 13.2 -18 16 42   0.1860  1.1902   167.5    10.5    19.0
    ...
    2014 09 15    22 42 29.6 -01 15 25   0.1811  1.1835   167.9    10.2    18.9
    ...
    2014 09 30    22 38 23.3 +25 30 32   0.2247  1.1942   145.8    28.1    20.0
    
    A. U. Tomatic                (C) Copyright 2014 MPC           M.P.E.C. 2014-Q115
    

    Read MPEC 2014-Q114 Read MPEC 2014-R01


    MPEC number:

    Enter an MPEC number in one of the following forms:

    • 1997-B01 (the full form)
    • J97B01 (the packed version of the full form)
    • B01 (the abbreviated form)